sat.trackr.live / text

‹ back to catalog

STARLINK-2164

NORAD 47750 · 2021-017AE

PAYLOAD ACTIVE UNKNOWN

§ Identity

Operator
Country
US
Launch date
2021-03-04
Launch site
AFETR
Launch vehicle
Mass (kg)
RCS (m²)

Purposes: comms

External: N2YO · Heavens-Above · Gunter

§ Orbital elements

Epoch: 2026-09-20T00:41:55.637088Z

Period
93.91 min
Inclination
53.1598°
Eccentricity
0.0002255
Mean motion
15.33365110 rev/d
Perigee alt
464.2 km
Apogee alt
467.3 km
Semi-major
6,843.9 km
B*
1.1848e-3
RAAN
8.9595°
Arg perigee
9.4365°
Mean anomaly
350.6679°
Rev number
30,777

§ Raw data

STARLINK-21641 47750U 21017AE  26263.02911617  .00038569  00000+0  11848-2 0  99942 47750  53.1598   8.9595 0002255   9.4365 350.6679 15.33365110307771

JSON: /api/v1/satellites/47750 · /tle

For live sub-satellite position, see the globe view (requires WebGL).

§ Visibility from observer

Set your observer location to see the next 7 days of passes ≥ 10°. The values pass through the URL so the page stays shareable.

No JS? Fill the form by hand. The geolocation button needs JavaScript.